User: anonymous   Login
Location: Newark
(49.8348°N, 24.0280°E)
Time: 15:57:09
(UTC+00:00)
Language:

Explorer 7 - Orbit

View from above orbital plane
View from above orbital plane
View from above satellite
View from above satellite

Ground track
Ground track

The orbit data is extracted from the following two-line orbital elements,

1 00022U 59009A   21018.83236099 -.00000025  00000-0  21379-4 0  9993
2 00022  50.2828 171.3457 0138874   1.7664 358.3747 14.95384159502591
Epoch (UTC): 18 January 2021 19:58:35
Eccentricity: 0.0138874
inclination: 50.2828°
perigee height: 484 km
apogee height: 678 km
right ascension of ascending node: 171.3457°
argument of perigee: 1.7664°
revolutions per day: 14.95384159
mean anomaly at epoch: 358.3747°
orbit number at epoch: 50259

The dashed part of the orbit path shows where the satellite is in the earth's shadow,  

DLR